SB KEPS @ AMSAT $ORB08346.N 2Line Orbital Elements 08346.AMSAT
HR AMSAT ORBITAL ELEMENTS FOR AMATEUR SATELLITES IN NASA FORMAT FROM WA5QGD FORT WORTH,TX December 11, 2008 Send Subscribe/unsubscribe to KEPS at http://www.amsat.org/mailman/listinfo/keps BID: ORB08346.N
DECODE 2-LINE ELSETS WITH THE FOLLOWING KEY: 1 AAAAAU 00 0 0 BBBBB.BBBBBBBB .CCCCCCCC 00000-0 00000-0 0 DDDZ 2 AAAAA EEE.EEEE FFF.FFFF GGGGGGG HHH.HHHH III.IIII JJ.JJJJJJJJKKKKKZ KEY: A-CATALOGNUM B-EPOCHTIME C-DECAY D-ELSETNUM E-INCLINATION F-RAAN G-ECCENTRICITY H-ARGPERIGEE I-MNANOM J-MNMOTION K-ORBITNUM Z-CHECKSUM
TO ALL RADIO AMATEURS BT
AO-07 1 07530U 74089B 08346.38408185 -.00000027 00000-0 10000-3 0 3494 2 07530 101.4477 011.8245 0011766 275.4355 084.5378 12.53574760559187 AO-10 1 14129U 83058B 08343.45863267 .00000107 00000-0 10000-3 0 5976 2 14129 026.0341 182.1707 5958897 179.8504 180.4929 02.05868720191693 UO-11 1 14781U 84021B 08345.95425105 .00000356 00000-0 54654-4 0 8336 2 14781 098.1348 022.4325 0008284 219.4593 140.6041 14.79683444329997 RS-15 1 23439U 94085A 08346.39712628 -.00000039 00000-0 10000-3 0 1658 2 23439 064.8161 208.4878 0145797 088.3234 273.4381 11.27553090574947 FO-29 1 24278U 96046B 08346.46061694 -.00000069 00000-0 -36859-4 0 9234 2 24278 098.5776 239.4538 0351514 116.6110 247.1497 13.52939874608364 SO-33 1 25509U 98061B 08345.54375048 .00000020 00000-0 -79677-5 0 3427 2 25509 031.4287 039.1681 0354659 129.2227 234.0438 14.28232279528844 AO-40 1 26609U 00072B 08345.45817211 -.00000012 00000-0 10000-3 0 1654 2 26609 008.2618 044.3169 7938980 153.6540 290.7641 01.25583138 37257 VO-52 1 28650U 05017B 08346.36224472 .00000403 00000-0 57725-4 0 1017 2 28650 097.7700 047.9055 0026003 283.5485 076.2810 14.81532559194831 PO-63 1 29712U 07001D 08346.73248185 .00000691 00000-0 97187-4 0 474 2 29712 097.8551 041.3954 0014393 160.8840 199.2926 14.80370194103730 AO-16 1 20439U 90005D 08345.94309357 .00000017 00000-0 21566-4 0 4832 2 20439 098.2539 317.1816 0011395 015.4453 344.7078 14.31810491986215 LO-19 1 20442U 90005G 08346.86946464 .00000056 00000-0 35847-4 0 4081 2 20442 098.2191 326.0224 0012247 009.7387 350.4032 14.32048230986505 AO-27 1 22825U 93061C 08346.03857660 .00000156 00000-0 77832-4 0 1269 2 22825 098.4110 299.6555 0009315 098.4207 261.8032 14.29254523793034 IO-26 1 22826U 93061D 08346.55175196 .00000015 00000-0 22400-4 0 8435 2 22826 098.4044 300.9827 0009858 093.0355 267.1973 14.29504119793207 GO-32 1 25397U 98043D 08346.63544050 -.00000086 00000-0 -19910-4 0 7693 2 25397 098.3449 012.8589 0002208 080.4902 279.6545 14.23151607541450 NO-44 1 26931U 01043C 08346.71380842 .00000182 00000-0 10335-3 0 484 2 26931 067.0515 187.3190 0006252 256.6737 103.3664 14.29542303375783 SO-50 1 27607U 02058C 08345.51672061 .00000024 00000-0 25789-4 0 7624 2 27607 064.5580 238.1100 0083367 245.0636 114.1799 14.71401021320918 CO-55 1 27844U 03031E 08346.71571763 .00000032 00000-0 35207-4 0 4621 2 27844 098.7157 352.5210 0009702 329.7519 030.3102 14.20611338282646 CO-57 1 27848U 03031J 08346.03339027 .00000039 00000-0 38615-4 0 4112 2 27848 098.7164 350.9178 0009860 334.8389 025.2304 14.20417496282512 AO-51 1 28375U 04025K 08345.53448042 .00000009 00000-0 15665-4 0 2647 2 28375 098.0587 000.0851 0084563 338.5286 021.2362 14.40627152233791 CO-56 1 28941U 06005C 08346.85520439 .00031214 27410-5 17941-3 0 6275 2 28941 098.1225 123.3369 0133756 111.1231 250.4335 15.67351378157769 CP3 1 31128U 07012M 08345.82009647 -.00000046 00000-0 00000 0 0 5032 2 31128 098.0177 041.5820 0103383 148.0857 212.6653 14.51999874 87568 CP4 1 31132U 07012Q 08346.15551382 .00000154 00000-0 44178-4 0 4804 2 31132 098.0221 044.9473 0086533 138.1189 222.6671 14.55165683 87680 CO-65 1 32785U 08021C 08346.22265743 .00000281 00000-0 42704-4 0 2331 2 32785 097.9728 045.4941 0013777 283.3972 076.5702 14.81425967 33612 NOAA-10 1 16969U 86073A 08346.08393756 .00000098 00000-0 58215-4 0 4073 2 16969 098.7097 007.5895 0012825 028.7309 331.4583 14.27375547156671 NOAA-11 1 19531U 88089A 08346.31385390 .00000012 00000-0 29001-4 0 4326 2 19531 098.7928 073.1276 0010915 285.7640 074.2364 14.14883303 42959 NOAA-12 1 21263U 91032A 08346.84831904 .00000076 00000-0 32253-4 0 9393 2 21263 098.7714 348.8360 0011978 333.6012 026.5038 14.25558172913746 MET-3/5 1 21655U 91056A 08344.91006603 .00000051 00000-0 10000-3 0 5260 2 21655 082.5551 340.2263 0012682 298.3400 061.6442 13.17017188832713 MET-2/21 1 22782U 93055A 08346.52406316 .00000127 00000-0 10119-3 0 3237 2 22782 082.5471 330.8854 0023136 149.3448 210.9082 13.83632164771654 OKEAN-4 1 23317U 94066A 08346.08072388 .00000149 00000-0 15514-4 0 7709 2 23317 082.5377 150.0198 0020546 264.4800 095.4074 14.82658015764494 NOAA-14 1 23455U 94089A 08346.83509382 -.00000010 00000-0 00000 0 0 4253 2 23455 098.9300 059.0208 0009482 006.7283 353.4500 14.13753270719542 NOAA-15 1 25338U 98030A 08346.82605544 .00000087 00000-0 37446-4 0 7313 2 25338 098.5699 334.3090 0009801 242.5643 117.5018 14.24736576550104 RESURS 1 25394U 98043A 08346.50649902 -.00000029 00000-0 51513-5 0 918 2 25394 098.3627 022.1771 0002405 048.6541 311.4846 14.24176414541684 FENGYUN1 1 25730U 99025A 08346.88256845 .00000777 00000-0 48145-3 0 6352 2 25730 098.7413 316.8125 0023005 023.6599 336.5623 14.07899592493964 OKEAN-0 1 25860U 99039A 08346.07753664 .00000041 00000-0 13483-4 0 5466 2 25860 097.7665 328.9632 0001863 064.7188 295.4222 14.73548540505443 NOAA-16 1 26536U 00055A 08346.86328638 .00000014 00000-0 74873-5 0 2067 2 26536 099.1708 340.0657 0011196 087.4978 272.7948 14.12504479423852 NOAA-17 1 27453U 02032A 08346.82167275 .00000135 00000-0 58732-4 0 2134 2 27453 098.5134 046.1036 0011087 313.6046 046.4704 14.24024752336089 NOAA-18 1 28654U 05018A 08346.80282212 .00000267 00000-0 14812-3 0 6974 2 28654 098.8879 285.6978 0014257 169.2723 190.9224 14.11217461183524 HUBBLE 1 20580U 90037B 08346.14780929 .00000373 00000-0 16000-4 0 2813 2 20580 028.4706 248.9979 0003862 106.4277 253.6739 15.00437387821585 PO-34 1 25520U 98064B 08346.46890278 .00000334 00000-0 66649-5 0 1398 2 25520 028.4594 071.8284 0004885 061.0933 299.0144 15.17269357560113 ISS 1 25544U 98067A 08346.68796588 .00004491 00000-0 33766-4 0 8343 2 25544 051.6405 186.6824 0006597 084.4519 275.7769 15.71820326576462 CO-58 1 28895U 05043F 08343.71249886 .00000050 00000-0 20076-4 0 1870 2 28895 098.0789 233.4047 0017045 221.9612 138.0262 14.59722200165947 FALCON 1 30776U 07006E 08346.53098909 .00000348 00000-0 28349-4 0 4574 2 30776 035.4327 157.8456 0000910 022.4204 337.6555 15.03122954 96842 MAST 1 31126U 07012K 08344.10218530 .00000009 00000-0 12610-4 0 4776 2 31126 098.0188 041.3413 0095429 149.2951 211.3866 14.53463550 87429 CAPE1 1 31130U 07012P 08346.15748822 .00000007 00000-0 12307-4 0 4748 2 31130 098.0198 041.9162 0103269 146.9731 213.7971 14.52014577 87405 COMPASS 1 32787U 08021E 08345.87506084 .00000354 00000-0 51958-4 0 2230 2 32787 097.9691 045.0535 0014783 285.9516 074.0048 14.81512624 33565 AAUSAT2 1 32788U 08021F 08346.46596976 .00000433 00000-0 61820-4 0 2244 2 32788 097.9693 045.6718 0014253 284.3005 075.6631 14.81628172 33656 DO-64 1 32789U 08021G 08346.88735188 .00000606 00000-0 83915-4 0 2354 2 32789 097.9729 046.1546 0014730 281.4671 078.4884 14.81558314 33717 CO-66 1 32791U 08021J 08346.43760679 .00000270 00000-0 41430-4 0 2163 2 32791 097.9720 045.6389 0015111 281.3730 078.5788 14.81358398 33612 RS-30 1 32953U 08025A 08346.32668995 .00000010 00000-0 00000 0 0 1808 2 32953 082.5034 013.4340 0018095 225.9703 133.9882 12.42998674 25050 /EX
participants (1)
-
Ray Hoad